W5ZYX Weather Reports


Display with metric or nautical units.
time (UTC)temp
F
wind
direction
speed
MPH
gust
MPH
rain 1hr
in
rain 24hr
in
rain mn
in
humidity
%
barometer
mb
20260831191606 97 139 5.0 13.0 0.00 0.00 0.00 47 1016.0
20260831191036 97 94 6.0 11.0 0.00 0.00 0.00 48 1016.0
20260831190537 96 286 2.0 11.0 0.00 0.00 0.00 47 1016.0
20260831190122 96 119 3.0 11.0 0.00 0.00 0.00 47 1016.3
20260831185536 96 106 5.0 11.0 0.00 0.00 0.00 47 1016.4
20260831185036 96 108 6.0 10.0 0.00 0.00 0.00 48 1016.5
20260831184614 96 32 6.0 10.0 0.00 0.00 0.00 49 1016.7
20260831184037 96 155 2.0 9.0 0.00 0.00 0.00 48 1016.6
20260831183537 95 125 2.0 14.0 0.00 0.00 0.00 49 1016.6
20260831183106 96 140 3.0 14.0 0.00 0.00 0.00 49 1016.7
20260831182538 97 133 8.0 14.0 0.00 0.00 0.00 48 1016.8
20260831182037 96 24 1.0 13.0 0.00 0.00 0.00 50 1016.8
20260831181602 95 165 5.0 13.0 0.00 0.00 0.00 50 1017.0
20260831181037 95 69 3.0 10.0 0.00 0.00 0.00 50 1017.0
20260831180536 95 159 3.0 10.0 0.00 0.00 0.00 51 1017.0
20260831175537 95 144 5.0 10.0 0.00 0.00 0.00 50 1017.2
20260831175037 95 142 2.0 12.0 0.00 0.00 0.00 51 1017.3
20260831174616 95 152 4.0 12.0 0.00 0.00 0.00 51 1017.4
20260831174040 94 159 5.0 12.0 0.00 0.00 0.00 54 1017.3
20260831173537 93 117 2.0 6.0 0.00 0.00 0.00 56 1017.4
20260831173059 93 51 2.0 10.0 0.00 0.00 0.00 55 1017.4
20260831172536 93 150 4.0 10.0 0.00 0.00 0.00 54 1017.5
20260831172038 93 76 6.0 10.0 0.00 0.00 0.00 55 1017.5
20260831171601 93 5 2.0 9.0 0.00 0.00 0.00 56 1017.6
20260831171038 92 0 3.0 9.0 0.00 0.00 0.00 58 1017.6
20260831170537 92 100 3.0 10.0 0.00 0.00 0.00 57 1017.7
20260831170100 92 117 3.0 10.0 0.00 0.00 0.00 57 1017.8
20260831165537 92 128 4.0 11.0 0.00 0.00 0.00 57 1017.9
20260831165036 93 146 6.0 11.0 0.00 0.00 0.00 57 1017.9
20260831164557 92 153 2.0 6.0 0.00 0.00 0.00 57 1017.9
20260831164036 92 112 1.0 6.0 0.00 0.00 0.00 57 1017.9
20260831163538 92 176 2.0 7.0 0.00 0.00 0.00 59 1018.0
20260831163106 92 352 1.0 8.0 0.00 0.00 0.00 59 1018.0
20260831162537 91 165 2.0 9.0 0.00 0.00 0.00 60 1018.0
20260831162037 91 172 5.0 9.0 0.00 0.00 0.00 60 1018.0
20260831161605 90 13 1.0 7.0 0.00 0.00 0.00 61 1018.0
20260831161037 90 138 1.0 7.0 0.00 0.00 0.00 62 1018.0
20260831160537 90 46 4.0 7.0 0.00 0.00 0.00 63 1018.0
20260831160057 89 148 2.0 6.0 0.00 0.00 0.00 63 1018.1
20260831155537 89 34 2.0 6.0 0.00 0.00 0.00 66 1018.1
20260831155037 89 77 3.0 6.0 0.00 0.00 0.00 66 1018.1
20260831154624 89 190 2.0 6.0 0.00 0.00 0.00 68 1018.0
20260831154037 89 258 2.0 6.0 0.00 0.00 0.00 67 1018.0
20260831153539 88 212 1.0 6.0 0.00 0.00 0.00 69 1017.9
20260831153115 87 272 2.0 5.0 0.00 0.00 0.00 70 1017.9
20260831152536 87 246 1.0 4.0 0.00 0.00 0.00 71 1017.9
20260831152036 86 289 0.0 7.0 0.00 0.00 0.00 74 1017.9
20260831151611 86 289 2.0 8.0 0.00 0.00 0.00 74 1017.8
20260831151038 86 287 3.0 8.0 0.00 0.00 0.00 75 1017.8
20260831150537 86 288 4.0 8.0 0.00 0.00 0.00 75 1017.9
20260831145539 85 0 1.0 7.0 0.00 0.00 0.00 79 1017.9
20260831145038 85 286 2.0 7.0 0.00 0.00 0.00 80 1017.9
20260831144558 84 63 0.0 4.0 0.00 0.00 0.00 81 1017.9
20260831144038 84 0 0.0 6.0 0.00 0.00 0.00 82 1017.8
20260831143538 83 255 3.0 6.0 0.00 0.00 0.00 82 1017.8
20260831143058 83 298 2.0 6.0 0.00 0.00 0.00 83 1017.7
20260831142537 83 273 1.0 6.0 0.00 0.00 0.00 84 1017.7
20260831142036 82 344 1.0 6.0 0.00 0.00 0.00 85 1017.7
20260831141605 82 0 1.0 4.0 0.00 0.00 0.00 85 1017.7
20260831141037 81 275 1.0 6.0 0.00 0.00 0.00 86 1017.8
20260831140539 81 275 3.0 6.0 0.00 0.00 0.00 85 1017.7
20260831140059 82 257 0.0 0.0 0.00 0.00 0.00 86 1017.7
20260831135537 81 0 0.0 0.0 0.00 0.00 0.00 86 1017.8
20260831135038 81 0 0.0 0.0 0.00 0.00 0.00 87 1017.6
20260831134601 80 0 0.0 0.0 0.00 0.00 0.00 87 1017.6
20260831134036 79 0 0.0 0.0 0.00 0.00 0.00 88 1017.5
20260831133536 79 0 0.0 0.0 0.00 0.00 0.00 89 1017.6
20260831133106 78 0 0.0 0.0 0.00 0.00 0.00 89 1017.6
20260831132537 78 0 0.0 3.0 0.00 0.00 0.00 90 1017.6
20260831132037 77 0 0.0 3.0 0.00 0.00 0.00 90 1017.5
20260831131601 76 0 1.0 3.0 0.00 0.00 0.00 91 1017.6
20260831131037 76 0 1.0 3.0 0.00 0.00 0.00 91 1017.5
20260831130537 75 89 1.0 3.0 0.00 0.00 0.00 92 1017.6
20260831130107 75 89 0.0 3.0 0.00 0.00 0.00 92 1017.5
20260831125537 74 0 1.0 3.0 0.00 0.00 0.00 92 1017.4
20260831125037 74 89 1.0 3.0 0.00 0.00 0.00 92 1017.4
20260831124553 73 88 1.0 3.0 0.00 0.00 0.00 92 1017.3
20260831124038 73 0 0.0 2.0 0.00 0.00 0.00 92 1017.3
20260831123536 72 0 0.0 0.0 0.00 0.00 0.00 91 1017.2
20260831123102 72 0 0.0 0.0 0.00 0.00 0.00 91 1016.9
20260831122536 72 0 0.0 0.0 0.00 0.00 0.00 90 1016.9
20260831122037 72 0 0.0 0.0 0.00 0.00 0.00 90 1017.0
20260831121628 72 0 0.0 0.0 0.00 0.00 0.00 90 1016.7
20260831121039 72 0 0.0 0.0 0.00 0.00 0.00 90 1016.8
20260831120537 72 0 0.0 0.0 0.00 0.00 0.00 90 1016.7
20260831120054 72 0 0.0 0.0 0.00 0.00 0.00 90 1016.6
20260831115536 72 0 0.0 0.0 0.00 0.00 0.00 90 1016.6
20260831115037 72 0 0.0 0.0 0.00 0.00 0.00 89 1016.5
20260831114604 72 0 0.0 0.0 0.00 0.00 0.00 89 1016.6
20260831114037 72 0 0.0 0.0 0.00 0.00 0.00 89 1016.4
20260831113537 73 0 0.0 0.0 0.00 0.00 0.00 89 1016.5
20260831113109 73 0 0.0 0.0 0.00 0.00 0.00 89 1016.5
20260831112539 73 0 0.0 0.0 0.00 0.00 0.00 89 1016.4
20260831112037 73 0 0.0 0.0 0.00 0.00 0.00 89 1016.4
20260831111559 73 0 0.0 0.0 0.00 0.00 0.00 89 1016.4
20260831111038 74 0 0.0 0.0 0.00 0.00 0.00 89 1016.4
20260831110537 74 0 0.0 0.0 0.00 0.00 0.00 89 1016.2
20260831110055 74 0 0.0 0.0 0.00 0.00 0.00 88 1016.2
20260831105538 74 0 0.0 0.0 0.00 0.00 0.00 87 1016.2
20260831105036 74 0 0.0 0.0 0.00 0.00 0.00 88 1016.2
20260831104607 74 0 0.0 0.0 0.00 0.00 0.00 87 1016.2
20260831104036 74 0 0.0 0.0 0.00 0.00 0.00 86 1016.3
20260831103537 74 0 0.0 0.0 0.00 0.00 0.00 87 1016.3
20260831103109 75 0 0.0 0.0 0.00 0.00 0.00 87 1016.2
20260831102538 75 0 0.0 0.0 0.00 0.00 0.00 88 1016.4
20260831102036 75 0 0.0 0.0 0.00 0.00 0.00 87 1016.4
20260831101603 75 0 0.0 0.0 0.00 0.00 0.00 87 1016.3
20260831101036 75 0 0.0 0.0 0.00 0.00 0.00 87 1016.2
20260831100537 76 0 0.0 0.0 0.00 0.00 0.00 87 1016.1
20260831095539 76 0 0.0 0.0 0.00 0.00 0.00 87 1016.1
20260831095037 76 0 0.0 0.0 0.00 0.00 0.00 87 1016.1
20260831094607 76 0 0.0 1.0 0.00 0.00 0.00 87 1016.1
20260831094037 76 0 0.0 1.0 0.00 0.00 0.00 87 1016.1
20260831093537 76 0 0.0 0.0 0.00 0.00 0.00 86 1016.1
20260831093152 76 0 0.0 0.0 0.00 0.00 0.00 86 1016.0
20260831092539 77 0 0.0 0.0 0.00 0.00 0.00 86 1016.1
20260831092037 77 0 0.0 1.0 0.00 0.00 0.00 85 1016.0
20260831091558 77 0 0.0 1.0 0.00 0.00 0.00 85 1016.0
20260831091037 77 190 0.0 1.0 0.00 0.00 0.00 85 1016.0
20260831090537 77 0 0.0 1.0 0.00 0.00 0.00 85 1016.0
20260831090055 77 0 0.0 1.0 0.00 0.00 0.00 84 1015.9
20260831085537 77 0 0.0 1.0 0.00 0.00 0.00 84 1015.9
20260831085037 78 0 0.0 1.0 0.00 0.00 0.00 83 1015.9
20260831084639 78 0 0.0 0.0 0.00 0.00 0.00 83 1015.8
20260831084036 78 0 0.0 0.0 0.00 0.00 0.00 83 1015.9
20260831083536 78 0 0.0 1.0 0.00 0.00 0.00 83 1015.9
20260831083108 78 0 0.0 1.0 0.00 0.00 0.00 82 1016.0
20260831082537 78 0 0.0 1.0 0.00 0.00 0.00 82 1016.0
20260831082039 78 0 0.0 4.0 0.00 0.00 0.00 82 1016.0
20260831081555 79 0 0.0 5.0 0.00 0.00 0.00 82 1016.0
20260831081038 79 0 0.0 6.0 0.00 0.00 0.00 82 1016.0
20260831080537 79 177 2.0 6.0 0.00 0.00 0.00 82 1015.9
20260831080123 79 0 1.0 4.0 0.00 0.00 0.00 81 1016.0
20260831075539 79 161 1.0 4.0 0.00 0.00 0.00 81 1016.1
20260831075037 79 0 0.0 5.0 0.00 0.00 0.00 81 1016.1
20260831074605 79 161 2.0 5.0 0.00 0.00 0.00 80 1016.0
20260831074036 79 154 0.0 5.0 0.00 0.00 0.00 80 1016.0
20260831073539 79 172 1.0 5.0 0.00 0.00 0.00 80 1016.0
20260831073101 79 0 1.0 5.0 0.00 0.00 0.00 79 1016.0
20260831072536 79 161 0.0 4.0 0.00 0.00 0.00 79 1016.0
20260831072039 79 0 0.0 2.0 0.00 0.00 0.00 78 1016.1
20260831071612 80 0 0.0 2.0 0.00 0.00 0.00 78 1016.2
20260831071038 80 0 0.0 1.0 0.00 0.00 0.00 78 1016.2
20260831070537 80 0 0.0 1.0 0.00 0.00 0.00 77 1016.2
20260831070112 80 0 0.0 1.0 0.00 0.00 0.00 77 1016.2
20260831065538 80 0 0.0 2.0 0.00 0.00 0.00 77 1016.3
20260831065040 80 0 0.0 2.0 0.00 0.00 0.00 77 1016.3
20260831064600 80 0 0.0 1.0 0.00 0.00 0.00 76 1016.3
20260831064036 80 0 0.0 1.0 0.00 0.00 0.00 76 1016.4
20260831063537 80 0 0.0 1.0 0.00 0.00 0.00 75 1016.4
20260831063112 80 0 0.0 1.0 0.00 0.00 0.00 75 1016.4
20260831062539 80 0 0.0 2.0 0.00 0.00 0.00 74 1016.4
20260831062039 80 0 0.0 2.0 0.00 0.00 0.00 74 1016.3
20260831061603 81 0 0.0 1.0 0.00 0.00 0.00 73 1016.3
20260831061039 81 0 0.0 1.0 0.00 0.00 0.00 73 1016.2
20260831060536 81 161 0.0 1.0 0.00 0.00 0.00 72 1016.2
20260831060118 81 161 0.0 4.0 0.00 0.00 0.00 72 1016.2
20260831055536 81 0 0.0 4.0 0.00 0.00 0.00 72 1016.1
20260831055037 81 161 0.0 2.0 0.00 0.00 0.00 72 1016.2
20260831054600 81 0 0.0 2.0 0.00 0.00 0.00 71 1016.1
20260831054040 82 161 0.0 5.0 0.00 0.00 0.00 70 1016.1
20260831053538 82 0 0.0 5.0 0.00 0.00 0.00 70 1016.2
20260831053106 82 0 1.0 5.0 0.00 0.00 0.00 69 1016.1
20260831052539 82 161 0.0 4.0 0.00 0.00 0.00 69 1016.1
20260831052040 82 161 0.0 2.0 0.00 0.00 0.00 69 1016.0
20260831051602 82 161 0.0 4.0 0.00 0.00 0.00 68 1015.9
20260831051036 82 0 0.0 4.0 0.00 0.00 0.00 68 1015.8
20260831050539 82 161 0.0 2.0 0.00 0.00 0.00 67 1015.8
20260831050112 83 0 0.0 0.0 0.00 0.00 0.00 67 1015.7
20260831045536 83 0 0.0 0.0 0.00 0.00 0.00 66 1015.7
20260831045038 83 0 0.0 3.0 0.00 0.00 0.00 66 1015.7
20260831044558 83 0 0.0 4.0 0.00 0.00 0.00 66 1015.7
20260831044039 83 161 0.0 4.0 0.00 0.00 0.00 66 1015.7
20260831043540 83 161 1.0 5.0 0.00 0.00 0.00 65 1015.7
20260831043104 83 161 2.0 7.0 0.00 0.00 0.00 65 1015.6
20260831042547 83 161 1.0 7.0 0.00 0.00 0.00 66 1015.6
20260831042036 83 0 1.0 5.0 0.00 0.00 0.00 66 1015.5
20260831041553 84 183 1.0 3.0 0.00 0.00 0.00 66 1015.5
20260831041036 84 0 0.0 4.0 0.00 0.00 0.00 65 1015.5
20260831040536 84 0 0.0 4.0 0.00 0.00 0.00 65 1015.5
20260831040103 84 183 1.0 4.0 0.00 0.00 0.00 65 1015.4
20260831035536 84 183 0.0 2.0 0.00 0.00 0.00 65 1015.3
20260831035035 84 0 0.0 2.0 0.00 0.00 0.00 64 1015.2
20260831034603 84 183 0.0 2.0 0.00 0.00 0.00 64 1015.1
20260831034036 85 0 0.0 2.0 0.00 0.00 0.00 64 1015.1
20260831033536 85 183 0.0 3.0 0.00 0.00 0.00 63 1015.1
20260831033059 85 183 0.0 4.0 0.00 0.00 0.00 63 1015.0
20260831032536 85 183 1.0 5.0 0.00 0.00 0.00 63 1014.9
20260831032037 85 183 2.0 5.0 0.00 0.00 0.00 63 1015.0
20260831031602 85 169 2.0 5.0 0.00 0.00 0.00 62 1014.8
20260831031036 85 174 3.0 6.0 0.00 0.00 0.00 63 1014.8
20260831030536 85 175 2.0 6.0 0.00 0.00 0.00 63 1014.8
20260831030057 84 162 3.0 6.0 0.00 0.00 0.00 64 1014.7
20260831025536 83 143 2.0 5.0 0.00 0.00 0.00 65 1014.6
20260831025038 83 140 0.0 5.0 0.00 0.00 0.00 66 1014.5
20260831024559 83 0 0.0 0.0 0.00 0.00 0.00 66 1014.5
20260831024036 84 0 0.0 0.0 0.00 0.00 0.00 65 1014.4
20260831023537 84 0 0.0 0.0 0.00 0.00 0.00 64 1014.3
20260831023057 84 0 0.0 0.0 0.00 0.00 0.00 63 1014.3
20260831022537 85 0 0.0 0.0 0.00 0.00 0.00 62 1014.1
20260831022036 85 0 0.0 0.0 0.00 0.00 0.00 62 1014.1
20260831021603 86 0 0.0 0.0 0.00 0.00 0.00 62 1014.0
20260831021037 86 0 0.0 0.0 0.00 0.00 0.00 60 1013.9
20260831020538 86 0 0.0 0.0 0.00 0.00 0.00 57 1013.9
20260831020054 87 0 0.0 0.0 0.00 0.00 0.00 57 1013.8
20260831015539 88 0 0.0 0.0 0.00 0.00 0.00 57 1013.8
20260831015035 88 0 0.0 0.0 0.00 0.00 0.00 55 1013.7
20260831014553 88 0 0.0 0.0 0.00 0.00 0.00 54 1013.7
20260831014038 89 0 0.0 0.0 0.00 0.00 0.00 54 1013.6
20260831013536 89 0 0.0 0.0 0.00 0.00 0.00 54 1013.7
20260831013102 90 0 0.0 2.0 0.00 0.00 0.00 53 1013.6
20260831012536 90 0 0.0 2.0 0.00 0.00 0.00 52 1013.5
20260831012040 91 0 0.0 2.0 0.00 0.00 0.00 52 1013.4
20260831011601 91 0 0.0 2.0 0.00 0.00 0.00 51 1013.4
20260831011039 92 0 0.0 2.0 0.00 0.00 0.00 51 1013.4
20260831010539 92 174 0.0 3.0 0.00 0.00 0.00 50 1013.4
20260831010109 93 0 0.0 3.0 0.00 0.00 0.00 49 1013.5
20260831005540 93 0 1.0 5.0 0.00 0.00 0.00 49 1013.4
20260831005039 93 174 1.0 6.0 0.00 0.00 0.00 48 1013.5
20260831004603 94 167 2.0 6.0 0.00 0.00 0.00 48 1013.4
20260831004036 94 164 1.0 8.0 0.00 0.00 0.00 47 1013.5
20260831003538 94 161 3.0 9.0 0.00 0.00 0.00 47 1013.4
20260831003059 94 149 3.0 10.0 0.00 0.00 0.00 47 1013.5
20260831002538 95 146 5.0 10.0 0.00 0.00 0.00 46 1013.4
20260831002039 95 130 6.0 10.0 0.00 0.00 0.00 47 1013.5
20260831001628 95 141 3.0 8.0 0.00 0.00 0.00 47 1013.5
20260831001039 95 167 3.0 8.0 0.00 0.00 0.00 48 1013.4
20260831000539 95 165 3.0 10.0 0.00 0.00 0.00 48 1013.4
20260831000101 95 141 3.0 10.0 0.00 0.00 0.00 48 1013.4
20260830235539 95 146 4.0 9.0 0.00 0.00 0.00 47 1013.5
20260830235041 95 130 4.0 10.0 0.00 0.00 0.00 47 1013.5
20260830234603 95 113 5.0 10.0 0.00 0.00 0.00 47 1013.6
20260830234036 96 162 4.0 11.0 0.00 0.00 0.00 47 1013.5
20260830233537 96 137 5.0 12.0 0.00 0.00 0.00 47 1013.5
20260830233128 96 134 7.0 12.0 0.00 0.00 0.00 46 1013.5
20260830232540 96 132 6.0 12.0 0.00 0.00 0.00 45 1013.4
20260830232039 97 101 4.0 10.0 0.00 0.00 0.00 44 1013.5
20260830231607 98 176 5.0 10.0 0.00 0.00 0.00 43 1013.5
20260830231040 98 165 5.0 11.0 0.00 0.00 0.00 42 1013.5
20260830230539 98 136 4.0 11.0 0.00 0.00 0.00 42 1013.5
20260830230109 98 260 3.0 11.0 0.00 0.00 0.00 42 1013.5
20260830225540 98 124 3.0 9.0 0.00 0.00 0.00 43 1013.6
20260830225038 97 241 1.0 6.0 0.00 0.00 0.00 43 1013.6
20260830224604 97 175 2.0 8.0 0.00 0.00 0.00 44 1013.7
20260830224038 97 247 1.0 8.0 0.00 0.00 0.00 44 1013.6
20260830223537 97 184 3.0 8.0 0.00 0.00 0.00 44 1013.6
20260830223058 97 186 1.0 9.0 0.00 0.00 0.00 43 1013.6
20260830222538 97 0 3.0 9.0 0.00 0.00 0.00 43 1013.6
20260830222037 97 176 5.0 11.0 0.00 0.00 0.00 42 1013.6
20260830221602 98 160 5.0 11.0 0.00 0.00 0.00 41 1013.6
20260830221038 100 123 3.0 9.0 0.00 0.00 0.00 40 1013.7
20260830220537 100 215 3.0 8.0 0.00 0.00 0.00 40 1013.5
20260830220057 100 240 2.0 8.0 0.00 0.00 0.00 40 1013.5
20260830215539 100 0 0.0 7.0 0.00 0.00 0.00 41 1013.5
20260830215040 100 129 3.0 7.0 0.00 0.00 0.00 40 1013.6
20260830214601 100 225 2.0 11.0 0.00 0.00 0.00 40 1013.6
20260830214037 99 256 3.0 16.0 0.00 0.00 0.00 41 1013.8
20260830213537 99 188 6.0 16.0 0.00 0.00 0.00 40 1013.8
20260830213056 100 150 5.0 16.0 0.00 0.00 0.00 40 1013.8
20260830212537 99 179 3.0 7.0 0.00 0.00 0.00 42 1013.8
20260830212037 99 232 3.0 8.0 0.00 0.00 0.00 43 1013.9
20260830211604 99 193 3.0 8.0 0.00 0.00 0.00 43 1013.9
20260830211038 99 156 3.0 11.0 0.00 0.00 0.00 42 1014.0
20260830210539 99 175 5.0 11.0 0.00 0.00 0.00 43 1014.1
20260830210107 100 190 4.0 9.0 0.00 0.00 0.00 43 1014.2
20260830205538 100 226 3.0 9.0 0.00 0.00 0.00 42 1014.2
20260830205037 100 0 3.0 10.0 0.00 0.00 0.00 44 1014.3
20260830204559 100 231 2.0 10.0 0.00 0.00 0.00 43 1014.4
20260830204037 100 163 4.0 10.0 0.00 0.00 0.00 43 1014.5
20260830203537 100 223 3.0 10.0 0.00 0.00 0.00 44 1014.5
20260830203058 99 174 3.0 10.0 0.00 0.00 0.00 43 1014.7
20260830202537 99 186 2.0 11.0 0.00 0.00 0.00 43 1014.7
20260830202036 99 215 4.0 11.0 0.00 0.00 0.00 45 1014.8
20260830201556 98 204 2.0 10.0 0.00 0.00 0.00 45 1014.9
20260830201036 98 173 5.0 10.0 0.00 0.00 0.00 45 1015.0
20260830200539 99 165 3.0 10.0 0.00 0.00 0.00 45 1015.1
20260830200055 99 217 3.0 11.0 0.00 0.00 0.00 46 1015.2
20260830195537 98 130 3.0 11.0 0.00 0.00 0.00 46 1015.3
20260830195037 98 173 3.0 11.0 0.00 0.00 0.00 46 1015.3
20260830194607 98 198 4.0 11.0 0.00 0.00 0.00 46 1015.4
20260830194040 97 227 1.0 11.0 0.00 0.00 0.00 48 1015.4
20260830193536 97 157 3.0 11.0 0.00 0.00 0.00 48 1015.5
20260830193054 96 160 4.0 7.0 0.00 0.00 0.00 49 1015.7
20260830192536 96 290 2.0 10.0 0.00 0.00 0.00 49 1015.7
20260830192036 96 180 2.0 10.0 0.00 0.00 0.00 50 1015.7